Time,TemperatureF,DewpointF,PressureIn,WindDirection,WindDirectionDegrees,WindSpeedMPH,WindSpeedGustMPH,Humidity,HourlyPrecipIn,Conditions,Clouds,dailyrainin,SoftwareType,DateUTC
2013-03-03 00:29:00,43.5,34.7,30.32,NE,45,0.0,0.0,71,0.00,CLR,FEW,0.00,WeatherDisplay:10.37,2013-03-03 00:29:00,
2013-03-03 00:59:00,43.3,34.9,30.32,NE,45,0.0,0.0,72,0.00,CLR,FEW,0.00,WeatherDisplay:10.37,2013-03-03 00:59:00,
2013-03-03 01:29:00,43.2,35.1,30.32,NE,45,0.0,0.0,73,0.00,CLR,FEW,0.00,WeatherDisplay:10.37,2013-03-03 01:29:00,
2013-03-03 01:59:00,43.2,35.4,30.32,NE,45,0.0,0.0,74,0.00,CLR,FEW,0.00,WeatherDisplay:10.37,2013-03-03 01:59:00,
2013-03-03 02:29:00,43.0,35.9,30.31,NE,45,0.0,0.0,76,0.00,CLR,FEW,0.00,WeatherDisplay:10.37,2013-03-03 02:29:00,
2013-03-03 02:59:00,42.8,36.1,30.30,NE,45,0.0,0.0,77,0.00,CLR,FEW,0.00,WeatherDisplay:10.37,2013-03-03 02:59:00,
2013-03-03 03:29:00,42.6,36.2,30.29,NE,45,0.0,0.0,78,0.00,CLR,FEW,0.00,WeatherDisplay:10.37,2013-03-03 03:29:00,
2013-03-03 03:59:00,42.8,36.4,30.28,NE,45,0.0,0.0,78,0.00,CLR,FEW,0.00,WeatherDisplay:10.37,2013-03-03 03:59:00,
2013-03-03 04:29:00,42.6,35.9,30.27,NE,45,0.0,0.0,77,0.00,CLR,FEW,0.00,WeatherDisplay:10.37,2013-03-03 04:29:00,
2013-03-03 04:59:00,42.5,35.8,30.27,NE,45,0.0,0.0,77,0.00,CLR,FEW,0.00,WeatherDisplay:10.37,2013-03-03 04:59:00,
2013-03-03 05:29:00,42.4,35.7,30.27,NE,45,0.0,0.0,77,0.00,CLR,FEW,0.00,WeatherDisplay:10.37,2013-03-03 05:29:00,
2013-03-03 05:59:00,42.4,35.7,30.26,NE,45,0.0,0.0,77,0.00,CLR,FEW,0.00,WeatherDisplay:10.37,2013-03-03 05:59:00,
2013-03-03 06:29:00,42.4,35.7,30.26,NE,45,0.0,0.0,77,0.00,CLR,FEW,0.00,WeatherDisplay:10.37,2013-03-03 06:29:00,
2013-03-03 06:59:00,42.4,35.7,30.26,NE,45,0.0,0.0,77,0.00,CLR,FEW,0.00,WeatherDisplay:10.37,2013-03-03 06:59:00,
2013-03-03 07:29:00,42.6,35.9,30.26,NE,45,0.0,0.0,77,0.00,CLR,FEW,0.00,WeatherDisplay:10.37,2013-03-03 07:29:00,
2013-03-03 07:59:00,42.6,35.9,30.26,NE,45,0.0,0.0,77,0.00,CLR,FEW,0.00,WeatherDisplay:10.37,2013-03-03 07:59:00,
2013-03-03 08:29:00,42.8,36.4,30.26,NE,45,0.0,0.0,78,0.00,CLR,FEW,0.00,WeatherDisplay:10.37,2013-03-03 08:29:00,
2013-03-03 08:59:00,43.2,36.8,30.26,NE,45,0.0,0.0,78,0.00,CLR,FEW,0.00,WeatherDisplay:10.37,2013-03-03 08:59:00,
2013-03-03 09:29:00,43.5,36.8,30.25,NE,45,0.0,0.0,77,0.00,CLR,FEW,0.00,WeatherDisplay:10.37,2013-03-03 09:29:00,
2013-03-03 09:59:00,43.9,37.1,30.26,NE,45,0.0,0.0,77,0.00,CLR,FEW,0.00,WeatherDisplay:10.37,2013-03-03 09:59:00,
2013-03-03 10:29:00,44.4,38.0,30.25,NE,45,0.0,0.0,78,0.00,CLR,FEW,0.00,WeatherDisplay:10.37,2013-03-03 10:29:00,
2013-03-03 10:59:00,44.6,38.2,30.25,NE,45,0.0,0.0,78,0.00,CLR,FEW,0.00,WeatherDisplay:10.37,2013-03-03 10:59:00,
2013-03-03 11:29:00,45.1,38.7,30.25,NE,45,0.0,0.0,78,0.00,CLR,FEW,0.00,WeatherDisplay:10.37,2013-03-03 11:29:00,
2013-03-03 11:59:00,45.9,39.4,30.24,NE,45,0.0,2.0,78,0.00,CLR,FEW,0.00,WeatherDisplay:10.37,2013-03-03 11:59:00,
2013-03-03 12:29:00,47.1,40.3,30.23,NE,45,0.0,6.0,77,0.00,CLR,FEW,0.00,WeatherDisplay:10.37,2013-03-03 12:29:00,
2013-03-03 12:59:00,47.7,39.8,30.22,NE,45,1.0,6.0,74,0.00,CLR,FEW,0.00,WeatherDisplay:10.37,2013-03-03 12:59:00,
2013-03-03 13:29:00,49.3,40.6,30.21,NE,45,0.0,9.0,72,0.00,CLR,FEW,0.00,WeatherDisplay:10.37,2013-03-03 13:29:00,
2013-03-03 13:59:00,49.5,40.1,30.20,NE,45,0.0,11.0,70,0.00,CLR,FEW,0.00,WeatherDisplay:10.37,2013-03-03 13:59:00,
2013-03-03 14:29:00,49.3,39.9,30.19,NE,45,0.0,10.0,70,0.00,CLR,FEW,0.00,WeatherDisplay:10.37,2013-03-03 14:29:00,
2013-03-03 14:59:00,49.4,39.7,30.18,NE,45,0.0,9.0,69,0.00,CLR,FEW,0.00,WeatherDisplay:10.37,2013-03-03 14:59:00,
2013-03-03 15:29:00,49.1,39.0,30.17,NE,45,0.0,7.0,68,0.00,CLR,FEW,0.00,WeatherDisplay:10.37,2013-03-03 15:29:00,
2013-03-03 15:59:00,48.4,37.9,30.16,NE,45,0.0,6.0,67,0.00,CLR,FEW,0.00,WeatherDisplay:10.37,2013-03-03 15:59:00,
2013-03-03 16:29:00,45.9,35.5,30.16,NE,45,0.0,8.0,67,0.00,CLR,FEW,0.00,WeatherDisplay:10.37,2013-03-03 16:29:00,
2013-03-03 16:59:00,44.9,34.9,30.15,NE,45,0.0,8.0,68,0.00,CLR,FEW,0.00,WeatherDisplay:10.37,2013-03-03 16:59:00,
2013-03-03 17:29:00,43.9,35.1,30.15,NE,45,1.0,10.0,71,0.00,CLR,FEW,0.00,WeatherDisplay:10.37,2013-03-03 17:29:00,
2013-03-03 17:59:00,42.6,34.9,30.14,NE,45,0.0,10.0,74,0.00,CLR,FEW,0.00,WeatherDisplay:10.37,2013-03-03 17:59:00,
2013-03-03 18:29:00,41.7,34.7,30.15,NE,45,3.0,11.0,76,0.00,CLR,FEW,0.00,WeatherDisplay:10.37,2013-03-03 18:29:00,
2013-03-03 18:59:00,41.2,34.8,30.14,NE,45,1.0,9.0,78,0.00,CLR,FEW,0.00,WeatherDisplay:10.37,2013-03-03 18:59:00,
2013-03-03 19:29:00,40.8,34.5,30.14,NE,45,0.0,9.0,78,0.00,CLR,FEW,0.00,WeatherDisplay:10.37,2013-03-03 19:29:00,
2013-03-03 19:59:00,40.8,34.8,30.13,NE,45,2.0,10.0,79,0.00,CLR,FEW,0.00,WeatherDisplay:10.37,2013-03-03 19:59:00,
2013-03-03 20:29:00,41.2,35.5,30.12,NE,45,3.0,10.0,80,0.00,CLR,FEW,0.00,WeatherDisplay:10.37,2013-03-03 20:29:00,
2013-03-03 20:59:00,41.4,35.4,30.12,NE,45,3.0,12.0,79,0.00,CLR,FEW,0.00,WeatherDisplay:10.37,2013-03-03 20:59:00,
2013-03-03 21:29:00,42.0,36.0,30.12,NE,45,6.0,13.0,79,0.00,CLR,FEW,0.00,WeatherDisplay:10.37,2013-03-03 21:29:00,
2013-03-03 22:00:00,42.1,35.4,30.11,NE,45,2.0,16.0,77,0.00,CLR,FEW,0.00,WeatherDisplay:10.37,2013-03-03 22:00:00,
2013-03-03 22:29:00,42.3,35.2,30.11,NE,45,5.0,13.0,76,0.00,CLR,FEW,0.00,WeatherDisplay:10.37,2013-03-03 22:29:00,
2013-03-03 22:59:00,42.3,35.2,30.10,NE,45,3.0,13.0,76,0.00,CLR,FEW,0.00,WeatherDisplay:10.37,2013-03-03 22:59:00,
2013-03-03 23:29:00,42.4,35.4,30.08,NE,45,3.0,14.0,76,0.00,CLR,FEW,0.00,WeatherDisplay:10.37,2013-03-03 23:29:00,
2013-03-03 23:59:00,42.4,35.4,30.08,NE,45,5.0,17.0,76,0.00,CLR,FEW,0.00,WeatherDisplay:10.37,2013-03-03 23:59:00,